Tracking 29892 objects as of 21-Nov-2024
HD Live streaming from Space Station
objects crossing your sky now

STARLINK-4178

Track STARLINK-4178 now!
10-day predictions
STARLINK-4178 is classified as:


NORAD ID: 53277
Int'l Code: 2022-086AM
Perigee: 545.9 km
Apogee: 547.8 km
Inclination: 53.2 °
Period: 95.4 minutes
Semi major axis: 6917 km
RCS: Unknown
Launch date: July 24, 2022
Source: United States (US)
Launch site: AIR FORCE EASTERN TEST RANGE (AFETR)
Your satellite tracking list
Your tracking list is empty




NASA's NSSDC Master Catalog

Two Line Element Set (TLE):
1 53277U 22086AM  24325.53834904 -.00002424  00000-0 -13421-3 0  9992
2 53277  53.2146 152.6982 0001395  90.2199 269.8953 15.08845167129445
Source of the keplerian elements: AFSPC